Location: Błonie
(52.1971°N, 20.6200°E)
Time: 18:29:44
(UTC+01:00)

ISS - Pass Details

Date: 02 February 2019
Orbit: 403 x 411 km, 51.6° (Epoch: 20 February)

Event Time Altitude Azimuth Distance (km) Brightness Sun altitude
Rises 19:41:28 0° 282° (WNW) 2,342 1.2 -29.9°
Reaches altitude 10° 19:43:42 10° 272° (W) 1,480 -0.1 -30.3°
Enters shadow 19:44:10 13° 268° (W) 1,308 -0.5 -30.3°
